Location: Banff
(51.1667°N, 115.5667°W)
Time: 13:19:51
(UTC+00:00)

Tiros 1 - Pass Details

Date: 01 August 2021
Orbit: 630 x 663 km, 48.4° (Epoch: 27 September)

Event Time Altitude Azimuth Distance (km) Brightness Sun altitude
Rises 06:51:27 0° 279° (W) 2,965 10.9 -19.8°
Reaches altitude 10° 06:53:58 10° 270° (W) 2,047 9.9 -19.9°
Enters shadow 06:57:39 32° 220° (SW) 1,103 8.0 -20.0°
